Location: Melbourne
(37.8170°S, 144.9670°E)
Time: 11:10:30
(UTC+11:00)

Daily predictions for brighter satellites

Satellite Brightness Start Highest point End
(mag) Time Altitude Azimuth Time Altitude Azimuth Time Altitude Azimuth
NOAA 12 4.2 20:54:08 10° SSE 20:59:34 89° WSW 21:04:55 10° NNW
Cosmos 1302 Rocket 4.0 20:54:17 10° SSW 20:59:36 81° ESE 21:04:48 10° NNE
FENGYUN 3A 4.1 20:57:21 10° SSE 21:02:34 43° E 21:07:42 10° N
OAO 3 Rocket 4.4 20:59:17 10° NNW 21:02:50 21° NNE 21:06:22 10° ENE
CZ-3C R/B 3.7 20:52:01 10° WNW 21:04:48 21° NW 21:09:28 10° N
Meteor 2-9 Rocket 4.3 21:06:15 10° NNW 21:11:36 80° W 21:17:09 10° S
Spot 2 Rocket 3.6 21:06:33 10° SSE 21:11:39 60° ENE 21:16:42 10° N
USA 186 3.0 21:09:05 10° SE 21:11:55 25° E 21:14:38 10° NNE
Cosmos 1606 Rocket 4.3 21:10:16 10° NNW 21:14:40 58° W 21:19:06 10° S
Cosmos 1666 4.2 21:12:23 10° NNW 21:16:07 42° W 21:19:54 10° S
Spot 1 4.2 21:13:08 10° SSE 21:17:19 54° ENE 21:21:38 10° N
ATLAS 2AS CENTAUR R/B 2.5 21:10:51 10° NNW 21:17:23 64° ENE 21:23:29 10° SE
MINOTAUR R/B 4.5 21:15:07 10° SSW 21:18:10 84° ESE 21:21:10 10° NNE
Genesis I 4.4 21:15:22 10° NNE 21:18:26 22° ENE 21:21:32 10° ESE
ALOS 2.3 21:13:45 10° SSE 21:18:30 67° ENE 21:23:10 10° N
Lacrosse 4 Rocket 4.3 21:19:59 10° WSW 21:22:12 14° WNW 21:24:24 10° NW
Lacrosse 5 rocket 3.4 21:21:09 10° S 21:23:45 17° SSE 21:26:17 10° ESE
BREEZE M DEB (TANK) 1.7 21:23:21 10° SW 21:25:31 65° SE 21:28:41 13° ENE
Cosmos 1459 Rocket 4.5 21:20:21 10° NNE 21:26:14 43° E 21:32:15 10° SSE
Cosmos 1842 4.3 21:23:39 10° SSW 21:27:32 47° W 21:31:22 10° NNW
Cosmos 2278 3.8 21:24:41 10° SSW 21:30:29 78° ESE 21:35:55 11° NNE
FengYun 1-2 T 4.3 21:25:14 10° SSE 21:30:52 87° ENE 21:36:29 10° NNW
Cosmos 1953 Rocket 4.5 21:26:58 10° SSW 21:31:18 50° W 21:35:32 10° NNW
Cosmos 1346 4.3 21:29:30 10° SSE 21:32:07 26° ESE 21:33:40 17° ENE
Cosmos 1758 Rocket 4.4 21:28:23 10° SSW 21:32:47 54° W 21:37:10 10° N
Cosmos 1707 3.7 21:30:14 10° SSE 21:33:47 31° ESE 21:36:17 16° NE
Resurs 01 Rocket 2.2 21:33:55 10° S 21:38:21 63° WSW 21:42:44 10° NNW
Cosmos 1980 Rocket 3.7 21:34:10 10° S 21:38:44 24° SE 21:42:40 12° ENE
GPS 2-04 Rocket1 3.6 21:36:58 10° NW 21:39:58 24° NNE 21:41:20 19° NE
Cosmos 1867 3.6 21:35:58 10° SSW 21:41:25 81° WNW 21:46:00 15° NNE
CZ-4B DEB 2.7 21:39:16 10° SSE 21:42:31 74° E 21:45:43 10° N
Cosmos 2058 Rocket 4.3 21:40:29 10° NNW 21:44:41 43° W 21:48:55 10° S
ASTRO E2 4.0 21:42:14 10° WNW 21:45:37 26° NNW 21:47:27 19° NNE
Cosmos 1241 Rocket 4.5 21:40:15 10° NNW 21:46:39 85° ENE 21:52:59 10° SSE
Cosmos 1378 4.5 21:48:42 10° SSE 21:51:55 25° ESE 21:53:15 20° ENE
H-2A R/B 3.3 21:48:47 10° S 21:52:32 59° WSW 21:56:17 10° NNW
Helios 1A 3.5 21:49:02 10° S 21:53:13 61° WSW 21:57:21 10° NNW
ERS-1 Rocket 3.9 21:52:12 10° SE 21:56:36 29° E 21:58:42 21° NE
Meteor 2-5 Rocket 3.7 21:54:20 10° S 21:59:58 79° E 22:04:16 17° NNE
Cosmos 407 Rocket 3.6 21:54:58 10° N 22:00:08 58° ENE 22:05:25 10° SSE
SEDSat Delta rocket 4.4 21:59:08 10° NNW 22:02:11 21° NNE 22:02:11 21° NNE
Atlas Centaur 2 2.7 21:58:58 10° NW 22:03:34 36° NNE 22:06:44 21° ENE
Timation 2 Rocket 4.3 21:58:23 10° NNW 22:05:04 73° WSW 22:11:33 10° SSE
SL-16 R/B 4.3 22:02:49 10° SSE 22:05:58 15° SE 22:09:06 10° E
Cosmos 1802 Rocket 4.0 22:01:28 10° N 22:07:50 80° E 22:14:12 10° S
Cosmos 676 Rocket 4.3 22:04:44 18° N 22:08:25 47° ENE 22:13:28 10° SSE
ATLAS 3B R/B 3.0 22:01:41 10° SSW 22:08:55 69° SE 22:13:54 23° NE
Meteor 1-22 Rocket 4.2 22:05:47 18° NNE 22:09:34 56° E 22:14:49 10° SSE
Cosmos 1697 Rocket 2.7 22:05:45 10° SSW 22:11:26 70° ESE 22:14:40 26° NE
Meteor 1-24 Rocket 3.8 22:07:52 10° S 22:13:22 58° ESE 22:16:14 27° NNE
Cosmos 1833 Rocket 3.1 22:09:02 10° NNW 22:14:37 65° WSW 22:20:16 10° SSE
Cosmos 1954 Rocket 4.4 22:12:10 24° NNE 22:14:46 42° ENE 22:19:45 10° SSE
Cosmos 2082 Rocket 3.1 22:12:59 10° NW 22:18:34 52° WSW 22:24:12 10° SSE
DMSP B5D2-2 4.1 22:15:35 25° NNE 22:18:46 77° ESE 22:24:08 10° S
Cosmos 1953 3.7 22:18:50 23° E 22:18:50 23° E 22:22:02 10° SE
Cosmos 2100 Rocket 4.4 22:14:33 10° NNW 22:20:39 64° W 22:26:51 10° S
CZ-4C R/B 2.0 22:15:06 10° SSW 22:20:53 89° WNW 22:23:30 31° NNE
ATLAS 5 CENTAUR R/B 1.8 22:20:01 10° SSW 22:25:16 79° ESE 22:27:18 35° NE
Exosat Rocket 3.5 22:21:32 10° SSW 22:27:06 74° ESE 22:29:18 34° NNE
Cosmos 1939 Rocket 2.7 22:25:35 10° SSE 22:29:35 86° ENE 22:31:21 32° N
Cosmos 1656 4.0 22:24:15 10° SSW 22:29:40 59° WNW 22:32:45 25° N
BREEZE-M DEB (TANK) 3.7 22:29:28 36° NE 22:29:57 38° ENE 22:38:09 10° ESE
Cosmos 2061 Rocket 4.5 22:25:05 10° NNW 22:31:11 60° W 22:37:25 10° S
Okean 3 Rocket 3.5 22:32:34 10° S 22:37:12 82° E 22:38:43 42° NNE
Cosmos 1140 Rocket 3.7 22:35:59 37° NNE 22:37:29 49° ENE 22:42:31 10° SSE
Cosmos-2242 4.1 22:37:47 30° E 22:37:49 30° E 22:41:43 10° SSE
Cosmos 1607 4.1 22:32:05 10° SSW 22:38:24 65° ESE 22:41:13 34° NE
CZ-4B R/B 4.1 22:37:18 23° NNW 22:40:06 49° W 22:44:58 10° SSW
Cosmos 1766 Rocket 4.3 22:36:40 10° S 22:40:44 36° ESE 22:41:13 35° E
Cosmos 2098 Rocket 4.3 22:41:39 15° WNW 22:43:21 24° WSW 22:45:56 10° SSW
YAOGAN 11 4.1 22:38:57 10° SSE 22:43:31 78° ENE 22:45:07 41° N
Cosmos 1076 Rocket 3.8 22:40:07 10° S 22:44:29 52° E 22:45:10 47° ENE
H-2A R/B 3.3 22:41:31 10° SE 22:44:41 26° E 22:44:41 26° E
OAO 3 Rocket 3.2 22:41:18 10° WNW 22:45:50 50° NNE 22:45:57 50° NNE
Cosmos 1766 4.0 22:49:08 29° NW 22:50:55 53° W 22:54:56 10° S
Cosmos 1674 4.4 22:48:58 10° SSE 22:51:43 22° ESE 22:51:43 22° ESE
NOSS 3-4 (A) 4.1 22:50:28 29° N 22:54:10 50° ENE 23:01:31 10° SE
Abrixas rocket 4.0 22:51:13 10° SW 22:54:10 27° SSE 22:54:56 24° SE
ARGOS 3.8 22:49:11 10° SSE 22:54:12 36° E 22:54:32 36° ENE
NOSS 3-4 (C) 4.2 22:50:41 30° N 22:54:16 49° ENE 23:01:37 10° SE
NOSS 3-2 (A) 4.4 22:50:12 10° SSW 22:56:18 38° SE 22:59:04 25° E
BREEZE-M DEB (TANK) 3.3 22:43:08 10° NW 22:56:20 84° NNE 22:59:59 10° ESE
In-Cosmos 22 4.2 22:50:31 10° S 22:56:23 80° E 22:58:17 44° NNE
Cosmos 1437 Rocket 3.9 22:58:29 30° ESE 22:58:29 30° ESE 23:01:10 10° SSE
COSMOS 2455 3.0 22:55:20 10° SSW 23:01:20 63° ESE 23:03:14 42° ENE
Cosmos 1470 4.2 23:03:01 26° ESE 23:03:01 26° ESE 23:05:28 10° SSE
Cosmos 1805 3.1 23:02:25 80° NNW 23:02:38 88° W 23:06:41 10° S
Cosmos 1816 Rocket 4.4 22:56:24 10° S 23:02:41 83° E 23:04:51 43° NNE
Envisat 3.8 22:58:19 10° S 23:03:16 50° WSW 23:06:54 18° NW
Lacrosse 5 rocket 1.4 22:59:34 10° SW 23:03:04 58° WNW 23:03:04 58° WNW
Terra 3.9 23:01:03 10° SE 23:02:46 15° ESE 23:02:46 15° ESE
Cosmos 2360 4.1 22:58:28 10° SSW 23:04:17 86° ESE 23:05:53 50° NNE
NOAA 11 4.3 23:01:09 10° SSE 23:06:35 55° E 23:07:24 50° NE
Cosmos 1570 Rocket 4.4 23:02:24 10° S 23:07:31 47° ESE 23:08:27 43° E
GEOS 3 Rocket 3.5 23:06:38 10° SE 23:11:58 90° SSW 23:14:44 29° NW
YAOGAN 6 3.2 23:10:13 10° S 23:13:43 51° WSW 23:13:54 50° W
SPOT 5 2.9 23:09:15 10° SSE 23:14:24 85° E 23:15:38 54° N
Cosmos 2285 Rocket 4.0 23:10:53 10° SSW 23:17:22 84° WNW 23:19:18 49° N
Cosmos 1544 3.5 23:18:52 65° SW 23:18:52 65° SW 23:22:22 10° S
Tsikada Rocket 4.4 23:13:57 10° SSW 23:20:07 57° W 23:22:40 34° NNW
Cosmos 2322 Rocket 2.4 23:16:10 10° SSW 23:21:48 59° ESE 23:22:50 51° ENE
Cosmos 2360 Rocket 3.8 23:17:55 10° S 23:22:28 24° SE 23:24:08 21° E
Cosmos 1980 Rocket 2.8 23:17:28 10° SSW 23:22:59 49° WNW 23:24:27 40° NNW
Cosmos 1842 Rocket 4.4 23:25:04 41° ESE 23:25:04 41° ESE 23:28:35 10° SSE
Cosmos 2233 Rocket 4.1 23:22:13 37° NNW 23:24:54 73° W 23:31:19 10° S
Cosmos 2084 Rocket 4.4 23:22:21 10° SW 23:26:54 40° WNW 23:27:02 40° WNW
Cosmos 2208 Rocket 4.0 23:24:44 10° SSW 23:30:14 72° ESE 23:30:49 65° ENE
Cosmos 1743 Rocket 3.8 23:26:24 10° S 23:30:25 61° SE 23:30:25 61° SE
MetOp-A 4.4 23:25:30 10° S 23:30:53 67° WSW 23:32:34 43° NW
SL-08 RB Rocket 3.7 23:27:47 10° SSE 23:32:11 73° ESE 23:32:11 73° ESE
Meteor 1-21 Rocket 4.4 23:35:09 10° SSW 23:40:41 63° W 23:41:38 54° NW
CENTAUR R/B 4.4 23:37:07 10° S 23:41:28 19° SE 23:45:08 11° E
Cosmos 1408 Rocket 4.4 23:38:03 10° SSW 23:42:09 40° W 23:42:15 40° W
H-2A R/B 2.2 23:39:04 10° SSE 23:44:33 63° E 23:44:33 63° E
USA 238 DEB 4.3 23:43:59 10° SW 23:50:40 45° WNW 23:52:07 40° NW
USA 238 4.3 23:44:03 10° SW 23:50:47 45° WNW 23:52:13 40° NW
SL-16 R/B 2.0 23:45:03 10° SSW 23:50:49 83° WNW 23:51:13 76° N
Atlas Centaur 2 3.6 23:46:51 10° WNW 23:49:23 26° NW 23:49:23 26° NW
CZ-2C R/B 3.1 23:53:18 50° E 23:53:45 51° ESE 23:59:15 10° S
Cosmos 1953 4.3 23:54:33 21° W 23:55:10 22° WSW 23:58:21 10° SSW
